Regional Weather Roundup
Issued by NWS Kansas City/Pleasant Hill, MO

Home | Current Version | Previous Version | Graphics & Text | Print | Product List | Glossary Off
Versions: 1 2 3 4 5 6 7 8 9 10 11 12 13 14 15 16 17 18 19 20 21 22 23 24 25 26 27 28 29 30 31 32 33 34 35 36 37 38 39 40 41 42 43 44 45 46 47 48 49 50

000
ASUS43 KEAX 041210
RWREAX

WEATHER ROUNDUP FOR EASTERN KANSAS AND NORTHWEST MISSOURI
NATIONAL WEATHER SERVICE KANSAS CITY/PLEASANT HILL MO
700 AM CDT SAT JUL 04 2015

KSZ040-057-103>105-MOZ028-029-037-043-041300-
...KANSAS CITY METROPOLITAN AREA...

CITY           SKY/WX    TMP DP  RH WIND       PRES   REMARKS
K.C. INTL      SUNNY     63  59  87 NE3       30.00S
6HR MIN TEMP:  59; 6HR MAX TEMP:  68;

K.C. DOWNTOWN  SUNNY     64  62  93 CALM      30.00R
6HR MIN TEMP:  63; 6HR MAX TEMP:  70; 6HR PCP: TRACE;

LEES SUMMIT    SUNNY     61  59  93 CALM      30.01R
6HR MIN TEMP:  59; 6HR MAX TEMP:  67;

OLATHE - IXD   CLEAR     62  59  90 CALM      30.01R
6HR MIN TEMP:  61; 6HR MAX TEMP:  67;

OLATHE - OJC   CLEAR     62  60  93 CALM      30.00R
6HR MIN TEMP:  61; 6HR MAX TEMP:  67;

LAWRENCE       CLEAR     59  58  96 E3        30.00S FOG

$$

MOZ001>008-011>017-020>025-030>033-038>040-044>046-053-054-041300-
...NORTHERN AND CENTRAL MISSOURI...

CITY           SKY/WX    TMP DP  RH WIND       PRES   REMARKS
ST. JOSEPH     MOSUNNY   59  58  96 CALM      30.00S FOG
6HR MIN TEMP:  57; 6HR MAX TEMP:  63;

MOSBY          SUNNY     59  59 100 CALM      30.00S FOG
HARRISONVILLE  SUNNY     63  61  94 CALM      30.03R FOG
WARRENSBURG    SUNNY     61  59  94 CALM      30.00R FOG
WHITEMAN AFB   SUNNY     61  61 100 CALM      29.99R
6HR MIN TEMP:  60; 6HR MAX TEMP:  65;

CLINTON        SUNNY     63  63 100 CALM      30.00R FOG
SEDALIA        SUNNY     63  60  90 CALM      30.02R
6HR MIN TEMP:  61; 6HR MAX TEMP:  66;

WARSAW         FAIR      63  63 100 CALM      30.01R
CHILLICOTHE      N/A     61  59  93 CALM      30.02R
6HR MIN TEMP:  59; 6HR MAX TEMP:  63;

KIRKSVILLE     SUNNY     59  57  93 N3        30.01R FOG
6HR MIN TEMP:  55; 6HR MAX TEMP:  59;


$$

MOZ041-047>049-056>058-063>065-088>090-097-041300-
...EASTERN AND SOUTHERN MISSOURI...

CITY           SKY/WX    TMP DP  RH WIND       PRES   REMARKS
ST. LOUIS INTL SUNNY     69  65  86 CALM      30.00R FOG
6HR MIN TEMP:  68; 6HR MAX TEMP:  73;

SPIRIT OF STL  SUNNY     65  65 100 CALM      29.99R FOG
COLUMBIA       SUNNY     63  60  90 N3        30.01R
JEFFERSON CITY SUNNY     62  60  93 NW3       29.99R
MEXICO         SUNNY    N/A N/A N/A CALM      29.99R HAZE
ROLLA          SUNNY     63  60  90 CALM      29.99R
LEBANON        SUNNY     64  63  94 E3        30.01S
OSAGE BEACH    SUNNY     61  57  88 CALM      30.00R
SPRINGFIELD    MOSUNNY   66  61  84 CALM      29.99R
BRANSON        MOSUNNY   64  64 100 CALM      30.01R
JOPLIN         MOCLDY    68  66  93 CALM      29.99R FOG
WEST PLAINS    SUNNY     66  63  90 N3        30.01R FOG
MALDEN         FOG       72  70  94 CALM      29.98R VSB<1/4

$$

IAZ060-094-KSZ022-034>040-054-083-096-NEZ052-066-093-041300-
...KANSAS...SOUTHEAST NEBRASKA AND IOWA...

CITY           SKY/WX    TMP DP  RH WIND       PRES   REMARKS
TOPEKA         PTCLDY    61  60  97 CALM      30.00R FOG
6HR MIN TEMP:  60; 6HR MAX TEMP:  64;

MANHATTAN      CLEAR     59  58  96 CALM      30.00R FOG
EMPORIA        CLEAR     58  57  97 SW3       30.00R FOG
CHANUTE        PTCLDY    65  62  90 CALM      29.99R
WICHITA        PTCLDY    64  61  90 S3        29.98F
OMAHA          CLEAR     58  56  93 CALM      30.00R FOG
LINCOLN        CLEAR     60  58  92 N3        30.01R FOG
FALLS CITY     CLEAR     59  58  96 CALM      29.99S
LAMONI         SUNNY     61  56  83 CALM      30.01R
DES MOINES     MOSUNNY   63  56  78 CALM      30.00R

$$




USA.gov is the U.S. government's official web portal to all federal, state and local government web resources and services.